"startDT [UTC]","vpos","CH4 [ppm]","stdev(CH4) [ppm]","CO2 [ppm]","stdev(CO2) [ppm]","H2O [ppm]","stdev(H2O)","p_LGR [torr]","T_LGR [C]","mt1_LGR [us]","mt2_LGR [us]","T_ECpre [C]","T_EC1 [C]","T_EC2 [C]","p_inlet [hPa]","p_in [hPa]","p_out [hPa]","T_inlet [C]","RH_inlet [%]","dwpt_inlet [C]","T_vent [C]","RH_vent [%]","dwpt_vent [C]","flow_vent [l min-1]","flow_inlet [l min-1]","dwpt_sample [C]","T_room [C]"
2013-02-09 00:00:00,0.0,1.9604,0.0012,408.76,0.22,-1.0,0.0,138.22,24.34,24.60,36.28,0.04,-272.74,-272.74,-46,561,-933,17.4,0.4,-46.8,17.6,0.5,-45.6,5.73,2.33,-38.2,23.3
2013-02-09 00:01:00,0.0,1.9612,0.0008,408.81,0.31,-1.0,0.0,138.22,24.34,24.60,36.28,0.04,-272.75,-272.75,-46,561,-933,17.4,0.4,-47.3,17.6,0.5,-45.9,5.73,2.38,-38.2,23.3
2013-02-09 00:02:00,0.0,1.9599,0.0009,408.73,0.21,-1.0,0.0,138.22,24.33,24.60,36.28,0.04,-272.75,-272.75,-46,560,-933,17.4,0.4,-47.4,17.6,0.5,-45.9,5.73,2.49,-38.2,23.3
2013-02-09 00:03:00,0.0,1.9594,0.0009,408.74,0.27,-1.0,0.0,138.22,24.33,24.60,36.28,0.04,-272.75,-272.75,-46,560,-933,17.4,0.4,-47.8,17.6,0.5,-46.4,5.73,2.37,-38.2,23.3
2013-02-09 00:04:00,0.0,1.9600,0.0009,408.75,0.25,-1.0,0.0,138.22,24.32,24.60,36.28,0.04,-272.74,-272.75,-46,560,-933,17.4,0.4,-48.2,17.6,0.5,-46.5,5.73,2.34,-38.2,23.3
2013-02-09 00:05:00,0.0,1.9600,0.0011,408.84,0.28,-1.0,0.0,138.22,24.31,24.60,36.27,0.04,-272.75,-272.75,-46,560,-933,17.4,0.4,-48.7,17.6,0.4,-47.2,5.73,2.50,-38.2,23.3
2013-02-09 00:06:00,0.0,1.9598,0.0009,408.81,0.26,-1.0,0.0,138.22,24.30,24.60,36.28,0.04,-272.75,-272.75,-46,561,-933,17.4,0.3,-49.1,17.6,0.4,-47.5,5.73,2.40,-38.2,23.3
2013-02-09 00:07:00,0.0,1.9598,0.0009,408.79,0.30,-1.0,0.0,138.22,24.30,24.60,36.28,0.04,-272.74,-272.74,-46,560,-933,17.4,0.3,-49.6,17.6,0.4,-48.0,5.73,2.33,-38.2,23.3
2013-02-09 00:08:00,0.0,1.9597,0.0008,408.85,0.24,-1.0,0.0,138.22,24.29,24.60,36.28,0.04,-272.75,-272.75,-46,560,-933,17.4,0.3,-50.2,17.6,0.4,-48.2,5.73,2.49,-38.2,23.3
2013-02-09 00:09:00,0.0,1.9599,0.0009,408.71,0.27,-1.0,0.0,138.22,24.29,24.60,36.28,0.04,-272.75,-272.75,-46,560,-933,17.4,0.3,-50.1,17.6,0.4,-48.1,5.73,2.42,-38.2,23.3
2013-02-09 00:10:00,0.0,1.9598,0.0008,408.86,0.25,-1.0,0.0,138.22,24.28,24.60,36.28,0.04,-272.75,-272.74,-46,560,-933,17.4,0.3,-50.2,17.6,0.4,-48.0,5.73,2.32,-38.2,23.3
2013-02-09 00:11:00,0.0,1.9602,0.0008,408.78,0.28,-1.0,0.0,138.22,24.28,24.60,36.28,0.04,-272.74,-272.75,-46,560,-933,17.4,0.3,-50.2,17.6,0.4,-48.2,5.73,2.47,-38.2,23.3
2013-02-09 00:12:00,0.0,1.9603,0.0008,408.80,0.27,-1.0,0.0,138.22,24.27,24.60,36.28,0.04,-272.75,-272.75,-46,560,-933,17.4,0.3,-50.0,17.6,0.4,-48.1,5.73,2.44,-38.2,23.3
2013-02-09 00:13:00,0.0,1.9607,0.0008,408.79,0.24,-1.0,0.0,138.22,24.27,24.60,36.28,0.04,-272.74,-272.75,-46,560,-933,17.4,0.3,-50.1,17.6,0.4,-48.0,5.73,2.31,-38.2,23.3
2013-02-09 00:14:00,0.0,1.9604,0.0009,408.83,0.29,-1.0,0.0,138.22,24.26,24.60,36.27,0.04,-272.74,-272.74,-46,560,-933,17.4,0.3,-50.0,17.6,0.4,-48.1,5.73,2.47,-38.2,23.3
2013-02-09 00:15:00,0.0,1.9602,0.0009,408.79,0.32,-1.0,0.0,138.22,24.26,24.60,36.28,0.04,-272.74,-272.75,-46,560,-933,17.4,0.3,-50.0,17.6,0.4,-48.1,5.73,2.45,-38.2,23.3
2013-02-09 00:16:00,0.0,1.9603,0.0009,408.71,0.23,-1.0,0.0,138.22,24.25,24.60,36.29,0.04,-272.75,-272.75,-46,560,-933,17.4,0.3,-50.1,17.6,0.4,-48.0,5.73,2.31,-38.2,23.3
2013-02-09 00:17:00,0.0,1.9597,0.0009,408.77,0.25,-1.0,0.0,138.22,24.24,24.60,36.28,0.04,-272.74,-272.75,-46,560,-933,17.4,0.3,-49.3,17.6,0.4,-48.0,5.73,2.45,-38.2,23.3
2013-02-09 00:18:00,0.0,1.9598,0.0009,408.75,0.27,-1.0,0.0,138.22,24.24,24.60,36.28,0.04,-272.75,-272.75,-46,560,-933,17.4,0.3,-49.2,17.6,0.4,-47.5,5.73,2.47,-38.2,23.2
2013-02-09 00:19:00,0.0,1.9602,0.0009,408.71,0.29,-1.0,0.0,138.22,24.23,24.60,36.28,0.04,-272.75,-272.75,-46,560,-933,17.4,0.4,-48.7,17.6,0.4,-47.4,5.73,2.32,-38.2,23.2
2013-02-09 00:20:00,0.0,1.9606,0.0009,408.88,0.31,-1.0,0.0,138.22,24.23,24.60,36.28,0.04,-272.75,-272.74,-46,560,-933,17.4,0.4,-48.6,17.6,0.4,-46.7,5.73,2.42,-38.3,23.2
2013-02-09 00:21:00,0.0,1.9616,0.0010,408.85,0.24,-1.0,0.0,138.22,24.22,24.60,36.28,0.04,-272.75,-272.75,-46,560,-933,17.4,0.4,-48.3,17.6,0.5,-46.6,5.73,2.48,-38.3,23.2
2013-02-09 00:22:00,0.0,1.9615,0.0010,408.88,0.29,-1.0,0.0,138.22,24.22,24.60,36.28,0.04,-272.75,-272.75,-46,560,-933,17.4,0.4,-47.9,17.6,0.5,-46.4,5.73,2.31,-38.3,23.2
2013-02-09 00:23:00,0.0,1.9614,0.0008,408.68,0.23,-1.0,0.0,138.22,24.22,24.60,36.29,0.04,-272.75,-272.74,-46,560,-933,17.4,0.4,-48.0,17.6,0.5,-46.2,5.73,2.42,-38.3,23.2
2013-02-09 00:24:00,0.0,1.9615,0.0008,408.80,0.28,-1.0,0.0,138.22,24.21,24.60,36.28,0.04,-272.74,-272.74,-46,560,-933,17.4,0.4,-48.1,17.6,0.5,-46.3,5.73,2.49,-38.3,23.2
2013-02-09 00:25:00,0.0,1.9608,0.0009,408.77,0.28,-1.0,0.0,138.22,24.21,24.60,36.28,0.04,-272.75,-272.74,-46,560,-933,17.4,0.4,-48.0,17.6,0.5,-46.4,5.73,2.33,-38.3,23.2
2013-02-09 00:26:00,0.0,1.9606,0.0010,408.77,0.25,-1.0,0.0,138.22,24.20,24.60,36.29,0.04,-272.74,-272.75,-46,560,-933,17.4,0.4,-48.5,17.6,0.4,-46.7,5.73,2.39,-38.3,23.2
2013-02-09 00:27:00,0.0,1.9607,0.0010,408.90,0.31,-1.0,0.0,138.22,24.19,24.60,36.28,0.04,-272.74,-272.75,-46,560,-933,17.4,0.4,-48.7,17.6,0.4,-46.8,5.73,2.50,-38.3,23.2
2013-02-09 00:28:00,0.0,1.9613,0.0011,408.85,0.28,-1.0,0.0,138.22,24.19,24.60,36.28,0.04,-272.75,-272.75,-46,560,-933,17.4,0.4,-48.7,17.6,0.4,-47.1,5.73,2.35,-38.3,23.2
2013-02-09 00:29:00,0.0,1.9625,0.0010,408.93,0.33,-1.0,0.0,138.22,24.18,24.60,36.28,0.04,-272.75,-272.75,-46,560,-933,17.4,0.4,-48.7,17.6,0.4,-47.5,5.73,2.37,-38.4,23.2
2013-02-09 00:30:00,0.0,1.9629,0.0009,408.99,0.27,-1.0,0.0,138.22,24.17,24.60,36.28,0.04,-272.74,-272.75,-46,560,-933,17.4,0.4,-48.7,17.6,0.4,-47.4,5.73,2.50,-38.4,23.1
2013-02-09 00:31:00,0.0,1.9609,0.0013,408.88,0.28,-1.0,0.0,138.22,24.16,24.60,36.28,0.04,-272.75,-272.74,-46,560,-933,17.4,0.4,-48.8,17.5,0.4,-47.6,5.73,2.36,-38.4,23.1
2013-02-09 00:32:00,0.0,1.9612,0.0009,408.99,0.30,-1.0,0.0,138.22,24.15,24.60,36.28,0.04,-272.75,-272.75,-46,560,-933,17.4,0.4,-48.7,17.5,0.4,-47.5,5.73,2.36,-38.4,23.2
2013-02-09 00:33:00,0.0,1.9619,0.0009,408.92,0.30,-1.0,0.0,138.22,24.14,24.60,36.28,0.04,-272.75,-272.75,-46,560,-933,17.4,0.4,-48.9,17.5,0.4,-47.5,5.73,2.50,-38.3,23.1
2013-02-09 00:34:00,0.0,1.9624,0.0011,408.94,0.33,-1.0,0.0,138.22,24.14,24.60,36.27,0.04,-272.74,-272.75,-46,560,-933,17.4,0.3,-49.5,17.5,0.4,-47.5,5.73,2.35,-38.4,23.1
2013-02-09 00:35:00,0.0,1.9621,0.0010,408.88,0.32,-1.0,0.0,138.22,24.13,24.60,36.28,0.04,-272.75,-272.75,-46,560,-933,17.4,0.3,-49.4,17.5,0.4,-47.6,5.73,2.36,-38.4,23.1
2013-02-09 00:36:00,0.0,1.9618,0.0007,409.01,0.27,-1.0,0.0,138.22,24.13,24.60,36.28,0.04,-272.75,-272.75,-46,560,-933,17.4,0.4,-48.8,17.5,0.4,-47.5,5.73,2.50,-38.4,23.2
2013-02-09 00:37:00,0.0,1.9621,0.0009,408.96,0.29,-1.0,0.0,138.22,24.12,24.60,36.28,0.04,-272.74,-272.74,-46,560,-932,17.4,0.4,-48.8,17.5,0.4,-47.5,5.73,2.36,-38.3,23.1
2013-02-09 00:38:00,0.0,1.9620,0.0009,408.97,0.29,-1.0,0.0,138.22,24.12,24.60,36.28,0.04,-272.74,-272.74,-46,560,-933,17.4,0.4,-48.9,17.5,0.4,-47.6,5.73,2.36,-38.3,23.1
2013-02-09 00:39:00,0.0,1.9624,0.0009,409.09,0.32,-1.0,0.0,138.22,24.12,24.60,36.27,0.04,-272.75,-272.75,-46,560,-933,17.4,0.3,-49.4,17.5,0.4,-47.5,5.73,2.50,-38.4,23.1
2013-02-09 00:40:00,0.0,1.9627,0.0009,408.92,0.27,-1.0,0.0,138.22,24.12,24.60,36.28,0.04,-272.74,-272.75,-46,560,-933,17.4,0.3,-49.3,17.5,0.4,-47.5,5.73,2.37,-38.4,23.1
2013-02-09 00:41:00,0.0,1.9623,0.0010,408.98,0.29,-1.0,0.0,138.22,24.11,24.60,36.28,0.04,-272.75,-272.75,-46,560,-933,17.4,0.3,-49.3,17.5,0.4,-47.6,5.73,2.35,-38.4,23.1
2013-02-09 00:42:00,0.0,1.9624,0.0009,409.01,0.26,-1.0,0.0,138.22,24.11,24.60,36.28,0.04,-272.74,-272.75,-46,560,-933,17.4,0.4,-48.6,17.5,0.4,-47.6,5.73,2.51,-38.4,23.1
2013-02-09 00:43:00,0.0,1.9625,0.0009,408.99,0.27,-1.0,0.0,138.22,24.11,24.60,36.28,0.04,-272.74,-272.75,-46,560,-933,17.4,0.4,-48.6,17.5,0.4,-47.4,5.73,2.36,-38.4,23.1
2013-02-09 00:44:00,0.0,1.9627,0.0008,409.06,0.26,-1.0,0.0,138.22,24.10,24.60,36.27,0.04,-272.75,-272.74,-46,560,-932,17.4,0.4,-48.7,17.5,0.4,-47.2,5.73,2.36,-38.4,23.1
2013-02-09 00:45:00,0.0,1.9624,0.0009,409.04,0.24,-1.0,0.0,138.22,24.10,24.60,36.28,0.04,-272.74,-272.74,-46,560,-933,17.4,0.4,-48.7,17.5,0.4,-47.5,5.73,2.51,-38.4,23.1
2013-02-09 00:46:00,0.0,1.9623,0.0009,409.05,0.26,-1.0,0.0,138.22,24.09,24.60,36.28,0.04,-272.75,-272.75,-46,560,-933,17.4,0.4,-48.7,17.5,0.4,-47.3,5.73,2.36,-38.4,23.1
2013-02-09 00:47:00,0.0,1.9620,0.0010,409.06,0.28,-1.0,0.0,138.22,24.08,24.60,36.28,0.04,-272.75,-272.75,-46,560,-933,17.4,0.4,-48.7,17.5,0.4,-47.0,5.73,2.36,-38.4,23.1
2013-02-09 00:48:00,0.0,1.9622,0.0009,409.04,0.29,-1.0,0.0,138.22,24.07,24.60,36.28,0.04,-272.74,-272.74,-46,560,-932,17.4,0.4,-48.1,17.5,0.4,-47.0,5.73,2.51,-38.4,23.1
2013-02-09 00:49:00,0.0,1.9619,0.0010,408.99,0.26,-1.0,0.0,138.22,24.07,24.60,36.28,0.04,-272.75,-272.75,-46,560,-932,17.4,0.4,-48.1,17.5,0.4,-46.9,5.73,2.35,-38.5,23.1
2013-02-09 00:50:00,0.0,1.9612,0.0008,409.10,0.27,-1.0,0.0,138.22,24.06,24.60,36.28,0.04,-272.75,-272.75,-46,560,-933,17.4,0.4,-47.8,17.5,0.5,-46.4,5.73,2.37,-38.5,23.1
2013-02-09 00:51:00,0.0,1.9618,0.0008,409.07,0.27,-1.0,0.0,138.22,24.05,24.60,36.27,0.04,-272.74,-272.75,-46,559,-932,17.4,0.4,-47.5,17.5,0.5,-46.3,5.73,2.51,-38.5,23.1
2013-02-09 00:52:00,0.0,1.9621,0.0010,409.04,0.28,-1.0,0.0,138.22,24.05,24.60,36.27,0.04,-272.75,-272.75,-46,560,-932,17.4,0.4,-47.4,17.5,0.5,-46.4,5.73,2.35,-38.5,23.1
2013-02-09 00:53:00,0.0,1.9616,0.0010,409.18,0.30,-1.0,0.0,138.22,24.04,24.60,36.27,0.04,-272.75,-272.75,-46,560,-932,17.3,0.4,-47.4,17.5,0.5,-46.4,5.73,2.37,-38.5,23.1
2013-02-09 00:54:00,0.0,1.9615,0.0008,409.09,0.28,-1.0,0.0,138.23,24.04,24.60,36.28,0.04,-272.74,-272.74,-46,560,-933,17.3,0.4,-47.5,17.5,0.5,-46.4,5.73,2.50,-38.5,23.1
2013-02-09 00:55:00,0.0,1.9608,0.0010,409.10,0.31,-1.0,0.0,138.22,24.04,24.60,36.27,0.04,-272.74,-272.74,-46,560,-933,17.3,0.4,-47.5,17.4,0.5,-46.5,5.73,2.36,-38.5,23.1
2013-02-09 00:56:00,0.0,1.9615,0.0008,409.06,0.30,-1.0,0.0,138.22,24.04,24.60,36.28,0.04,-272.74,-272.75,-46,560,-932,17.3,0.4,-47.4,17.4,0.5,-46.3,5.73,2.36,-38.5,23.1
2013-02-09 00:57:00,0.0,1.9612,0.0010,409.09,0.25,-1.0,0.0,138.22,24.03,24.60,36.28,0.04,-272.74,-272.75,-46,560,-932,17.3,0.4,-47.5,17.4,0.5,-46.5,5.73,2.50,-38.5,23.1
2013-02-09 00:58:00,0.0,1.9612,0.0010,409.06,0.26,-1.0,0.0,138.22,24.03,24.60,36.28,0.04,-272.74,-272.74,-46,560,-933,17.3,0.4,-47.4,17.4,0.5,-46.5,5.73,2.36,-38.5,23.1
2013-02-09 00:59:00,0.0,1.9616,0.0009,409.10,0.27,-1.0,0.0,138.22,24.02,24.60,36.28,0.04,-272.75,-272.75,-46,560,-933,17.3,0.4,-47.5,17.4,0.5,-46.3,5.73,2.36,-38.5,23.1
2013-02-09 01:00:00,0.0,1.9604,0.0008,408.98,0.25,-1.0,0.0,138.22,24.01,24.60,36.28,0.04,-272.75,-272.75,-46,560,-932,17.3,0.4,-47.5,17.4,0.5,-46.4,5.73,2.51,-38.5,23.1
2013-02-09 01:01:00,0.0,1.9605,0.0011,409.15,0.28,-1.0,0.0,138.22,24.01,24.60,36.27,0.04,-272.74,-272.74,-46,560,-932,17.3,0.4,-47.4,17.4,0.5,-46.2,5.73,2.35,-38.5,23.1
2013-02-09 01:02:00,0.0,1.9606,0.0008,409.03,0.31,-1.0,0.0,138.22,23.99,24.60,36.28,0.04,-272.74,-272.75,-46,560,-932,17.3,0.4,-47.6,17.4,0.5,-45.9,5.73,2.37,-38.6,23.0
2013-02-09 01:03:00,0.0,1.9601,0.0010,408.97,0.25,-1.0,0.0,138.22,23.98,24.60,36.28,0.04,-272.75,-272.75,-46,560,-932,17.3,0.4,-47.3,17.4,0.5,-45.9,5.73,2.50,-38.5,23.0
2013-02-09 01:04:00,0.0,1.9601,0.0008,409.05,0.26,-1.0,0.0,138.22,23.97,24.60,36.28,0.04,-272.74,-272.74,-46,560,-932,17.3,0.4,-46.9,17.4,0.5,-45.9,5.73,2.34,-38.6,23.0
2013-02-09 01:05:00,0.0,1.9612,0.0009,409.03,0.28,-1.0,0.0,138.22,23.97,24.60,36.28,0.04,-272.74,-272.74,-46,559,-932,17.3,0.4,-46.9,17.4,0.5,-45.9,5.73,2.38,-38.6,23.0
2013-02-09 01:06:00,0.0,1.9611,0.0008,409.12,0.21,-1.0,0.0,138.22,23.97,24.60,36.28,0.04,-272.75,-272.75,-46,559,-932,17.3,0.4,-46.9,17.4,0.5,-45.9,5.73,2.50,-38.6,23.0
2013-02-09 01:07:00,0.0,1.9606,0.0008,409.12,0.31,-1.0,0.0,138.23,23.96,24.60,36.27,0.04,-272.74,-272.75,-46,559,-932,17.3,0.4,-47.0,17.4,0.5,-45.9,5.73,2.34,-38.6,23.0
2013-02-09 01:08:00,0.0,1.9607,0.0009,409.15,0.28,-1.0,0.0,138.22,23.95,24.60,36.28,0.04,-272.74,-272.75,-46,559,-932,17.3,0.4,-46.9,17.4,0.5,-45.9,5.73,2.38,-38.6,23.0
2013-02-09 01:09:00,0.0,1.9606,0.0009,409.16,0.23,-1.0,0.0,138.22,23.94,24.60,36.27,0.04,-272.75,-272.75,-46,559,-932,17.3,0.4,-46.9,17.4,0.5,-45.9,5.73,2.50,-38.6,23.0
2013-02-09 01:10:00,0.0,1.9605,0.0011,409.06,0.33,-1.0,0.0,138.23,23.93,24.60,36.28,0.04,-272.75,-272.75,-46,560,-932,17.3,0.4,-46.9,17.4,0.5,-45.9,5.73,2.35,-38.6,23.0
2013-02-09 01:11:00,0.0,1.9600,0.0010,409.11,0.26,-1.0,0.0,138.22,23.92,24.60,36.28,0.04,-272.75,-272.75,-46,559,-932,17.3,0.4,-46.8,17.4,0.5,-45.9,5.73,2.38,-38.6,23.0
2013-02-09 01:12:00,0.0,1.9606,0.0009,409.07,0.27,-1.0,0.0,138.23,23.92,24.60,36.27,0.04,-272.75,-272.75,-46,559,-932,17.3,0.4,-46.9,17.4,0.5,-45.9,5.73,2.50,-38.6,23.0
2013-02-09 01:13:00,0.0,1.9612,0.0009,409.13,0.31,-1.0,0.0,138.22,23.92,24.60,36.27,0.04,-272.75,-272.75,-46,559,-932,17.3,0.4,-46.8,17.4,0.5,-45.9,5.73,2.33,-38.6,23.0
2013-02-09 01:14:00,0.0,1.9605,0.0008,409.05,0.28,-1.0,0.0,138.22,23.91,24.60,36.28,0.04,-272.74,-272.75,-46,559,-932,17.3,0.5,-46.8,17.4,0.5,-45.9,5.73,2.40,-38.6,23.0
2013-02-09 01:15:00,0.0,1.9608,0.0010,409.09,0.27,-1.0,0.0,138.22,23.91,24.60,36.27,0.04,-272.75,-272.74,-46,559,-932,17.3,0.4,-46.9,17.4,0.5,-45.9,5.73,2.49,-38.6,23.0
2013-02-09 01:16:00,0.0,1.9613,0.0011,409.08,0.24,-1.0,0.0,138.23,23.90,24.60,36.28,0.04,-272.75,-272.75,-46,559,-932,17.3,0.4,-46.8,17.4,0.5,-46.0,5.73,2.33,-38.6,23.0
2013-02-09 01:17:00,0.0,1.9610,0.0011,409.04,0.31,-1.0,0.0,138.22,23.90,24.60,36.28,0.04,-272.75,-272.74,-46,559,-932,17.3,0.4,-46.8,17.4,0.5,-45.7,5.73,2.41,-38.6,23.0
2013-02-09 01:18:00,0.0,1.9610,0.0010,408.93,0.28,-1.0,0.0,138.22,23.90,24.60,36.28,0.04,-272.74,-272.75,-46,559,-932,17.3,0.4,-46.9,17.4,0.5,-45.9,5.73,2.49,-38.6,23.0
2013-02-09 01:19:00,0.0,1.9610,0.0010,409.06,0.28,-1.0,0.0,138.22,23.90,24.60,36.27,0.04,-272.75,-272.75,-46,559,-932,17.3,0.4,-46.9,17.4,0.5,-45.9,5.73,2.32,-38.6,23.0
2013-02-09 01:20:00,0.0,1.9612,0.0010,409.07,0.28,-1.0,0.0,138.23,23.89,24.60,36.28,0.04,-272.75,-272.75,-46,559,-932,17.3,0.4,-47.2,17.4,0.5,-45.9,5.73,2.43,-38.6,23.0
2013-02-09 01:21:00,0.0,1.9611,0.0007,409.01,0.24,-1.0,0.0,138.22,23.88,24.60,36.27,0.04,-272.74,-272.75,-46,559,-932,17.2,0.4,-47.7,17.4,0.5,-46.6,5.73,2.47,-38.6,23.0
2013-02-09 01:22:00,0.0,1.9611,0.0009,409.05,0.24,-1.0,0.0,138.22,23.87,24.60,36.28,0.04,-272.75,-272.75,-46,559,-932,17.3,0.4,-48.2,17.4,0.4,-46.9,5.73,2.31,-38.6,23.0
2013-02-09 01:23:00,0.0,1.9608,0.0009,409.10,0.28,-1.0,0.0,138.23,23.86,24.60,36.27,0.04,-272.75,-272.75,-46,559,-932,17.2,0.4,-48.7,17.4,0.4,-47.6,5.73,2.47,-38.6,23.0
2013-02-09 01:24:00,0.0,1.9607,0.0008,409.00,0.35,-1.0,0.0,138.22,23.85,24.60,36.28,0.04,-272.74,-272.74,-46,559,-932,17.2,0.4,-48.7,17.4,0.4,-47.6,5.73,2.44,-38.7,23.0
2013-02-09 01:25:00,0.0,1.9604,0.0009,409.03,0.26,-1.0,0.0,138.23,23.85,24.60,36.28,0.04,-272.74,-272.74,-46,559,-932,17.2,0.4,-48.7,17.4,0.4,-47.6,5.73,2.31,-38.6,23.0
2013-02-09 01:26:00,0.0,1.9604,0.0009,408.99,0.30,-1.0,0.0,138.23,23.84,24.60,36.28,0.04,-272.75,-272.75,-46,559,-932,17.2,0.4,-48.8,17.4,0.4,-47.6,5.73,2.48,-38.6,23.0
2013-02-09 01:27:00,0.0,1.9601,0.0009,409.02,0.33,-1.0,0.0,138.23,23.83,24.60,36.28,0.04,-272.75,-272.75,-46,559,-932,17.2,0.4,-48.5,17.4,0.4,-47.6,5.73,2.43,-38.6,23.0
2013-02-09 01:28:00,0.0,1.9606,0.0008,409.08,0.29,-1.0,0.0,138.22,23.82,24.60,36.28,0.04,-272.74,-272.74,-46,559,-932,17.2,0.4,-48.8,17.4,0.4,-47.6,5.73,2.31,-38.6,23.0
2013-02-09 01:29:00,0.0,1.9604,0.0009,409.07,0.29,-1.0,0.0,138.23,23.82,24.60,36.27,0.04,-272.74,-272.74,-46,559,-932,17.2,0.4,-48.8,17.4,0.4,-47.6,5.73,2.49,-38.6,23.0
2013-02-09 01:30:00,0.0,1.9604,0.0008,409.02,0.31,-1.0,0.0,138.23,23.81,24.60,36.28,0.04,-272.75,-272.74,-46,559,-932,17.2,0.4,-48.6,17.4,0.4,-47.6,5.73,2.39,-38.6,23.0
2013-02-09 01:31:00,0.0,1.9618,0.0008,408.93,0.22,-1.0,0.0,138.23,23.81,24.60,36.28,0.04,-272.74,-272.75,-46,559,-932,17.2,0.4,-48.8,17.3,0.4,-47.6,5.73,2.33,-38.6,22.9
2013-02-09 01:32:00,0.0,1.9617,0.0009,409.10,0.28,-1.0,0.0,138.23,23.81,24.60,36.27,0.04,-272.74,-272.75,-46,559,-932,17.2,0.4,-48.6,17.3,0.4,-47.6,5.73,2.50,-38.6,22.9
2013-02-09 01:33:00,0.0,1.9614,0.0010,409.08,0.29,-1.0,0.0,138.23,23.80,24.60,36.28,0.04,-272.74,-272.75,-46,559,-932,17.2,0.4,-48.7,17.3,0.4,-47.0,5.73,2.37,-38.6,22.9
2013-02-09 01:34:00,0.0,1.9613,0.0009,408.99,0.30,-1.0,0.0,138.23,23.79,24.60,36.28,0.04,-272.74,-272.75,-46,559,-932,17.2,0.4,-48.3,17.3,0.4,-47.1,5.73,2.35,-38.6,22.9
2013-02-09 01:35:00,0.0,1.9612,0.0010,409.18,0.27,-1.0,0.0,138.23,23.79,24.60,36.27,0.04,-272.74,-272.75,-46,559,-932,17.2,0.4,-47.9,17.3,0.4,-47.0,5.73,2.51,-38.7,22.9
2013-02-09 01:36:00,0.0,1.9609,0.0010,409.09,0.29,-1.0,0.0,138.23,23.78,24.60,36.28,0.04,-272.75,-272.75,-46,559,-932,17.2,0.4,-47.8,17.3,0.4,-47.0,5.73,2.35,-38.7,22.9
2013-02-09 01:37:00,0.0,1.9609,0.0009,409.06,0.28,-1.0,0.0,138.23,23.77,24.60,36.28,0.04,-272.74,-272.75,-46,559,-932,17.2,0.4,-47.6,17.3,0.5,-46.5,5.73,2.39,-38.7,22.9
2013-02-09 01:38:00,0.0,1.9608,0.0010,409.14,0.27,-1.0,0.0,138.23,23.77,24.60,36.28,0.04,-272.74,-272.74,-46,559,-932,17.2,0.4,-47.4,17.3,0.5,-46.5,5.73,2.50,-38.7,22.9
2013-02-09 01:39:00,0.0,1.9604,0.0008,409.21,0.25,-1.0,0.0,138.23,23.76,24.60,36.28,0.04,-272.74,-272.75,-46,559,-932,17.2,0.4,-47.1,17.3,0.5,-46.5,5.73,2.32,-38.7,22.9
2013-02-09 01:40:00,0.0,1.9602,0.0011,409.13,0.25,-1.0,0.0,138.23,23.75,24.60,36.28,0.04,-272.75,-272.75,-46,559,-932,17.2,0.4,-46.9,17.3,0.5,-46.0,5.73,2.42,-38.7,22.9
2013-02-09 01:41:00,0.0,1.9600,0.0009,409.21,0.27,-1.0,0.0,138.23,23.75,24.60,36.27,0.04,-272.74,-272.74,-46,559,-932,17.2,0.5,-46.6,17.3,0.5,-46.0,5.73,2.48,-38.7,22.9
2013-02-09 01:42:00,0.0,1.9598,0.0009,409.21,0.28,-1.0,0.0,138.23,23.74,24.60,36.28,0.04,-272.75,-272.74,-46,559,-932,17.2,0.5,-46.4,17.3,0.5,-45.7,5.73,2.31,-38.7,22.9
2013-02-09 01:43:00,0.0,1.9595,0.0009,409.18,0.29,-1.0,0.0,138.23,23.74,24.60,36.27,0.04,-272.75,-272.75,-46,559,-932,17.2,0.5,-46.1,17.3,0.5,-45.5,5.73,2.45,-38.7,22.9
2013-02-09 01:44:00,0.0,1.9595,0.0008,409.06,0.25,-1.0,0.0,138.23,23.73,24.60,36.28,0.04,-272.75,-272.75,-46,559,-932,17.2,0.5,-45.9,17.3,0.5,-45.2,5.73,2.45,-38.7,22.9
2013-02-09 01:45:00,0.0,1.9590,0.0011,409.11,0.25,-1.0,0.0,138.23,23.72,24.61,36.27,0.04,-272.74,-272.74,-46,559,-932,17.2,0.5,-45.7,17.3,0.6,-45.0,5.73,2.31,-38.7,22.9
2013-02-09 01:46:00,0.0,1.9595,0.0010,409.06,0.28,-1.0,0.0,138.23,23.72,24.60,36.28,0.04,-272.75,-272.75,-46,559,-932,17.2,0.5,-45.4,17.3,0.5,-45.0,5.73,2.50,-38.7,22.9
2013-02-09 01:47:00,0.0,1.9597,0.0009,409.11,0.33,-1.0,0.0,138.23,23.71,24.60,36.28,0.04,-272.74,-272.74,-46,559,-932,17.2,0.5,-45.4,17.3,0.6,-44.6,5.73,2.39,-38.7,22.9
2013-02-09 01:48:00,0.0,1.9593,0.0009,409.29,0.30,-1.0,0.0,138.23,23.71,24.60,36.27,0.04,-272.74,-272.75,-46,559,-932,17.2,0.5,-45.3,17.3,0.6,-44.6,5.73,2.34,-38.7,22.9
2013-02-09 01:49:00,0.0,1.9598,0.0009,409.15,0.25,-1.0,0.0,138.23,23.70,24.60,36.28,0.04,-272.74,-272.75,-46,559,-932,17.2,0.5,-45.5,17.3,0.6,-44.6,5.73,2.51,-38.7,22.9
2013-02-09 01:50:00,0.0,1.9597,0.0009,409.20,0.29,-1.0,0.0,138.23,23.71,24.61,36.28,0.04,-272.75,-272.75,-46,559,-932,17.2,0.5,-45.4,17.3,0.6,-44.6,5.73,2.35,-38.7,22.9
2013-02-09 01:51:00,0.0,1.9600,0.0009,409.20,0.27,-1.0,0.0,138.23,23.70,24.60,36.27,0.04,-272.74,-272.75,-46,559,-932,17.2,0.5,-45.3,17.3,0.6,-45.0,5.73,2.37,-38.7,22.9
2013-02-09 01:52:00,0.0,1.9604,0.0010,409.24,0.26,-1.0,0.0,138.23,23.70,24.60,36.27,0.04,-272.74,-272.74,-46,559,-932,17.1,0.5,-45.7,17.3,0.5,-45.1,5.73,2.51,-38.7,22.9
2013-02-09 01:53:00,0.0,1.9608,0.0009,409.17,0.30,-1.0,0.0,138.23,23.69,24.60,36.28,0.04,-272.74,-272.75,-46,559,-932,17.2,0.5,-45.8,17.3,0.5,-45.0,5.73,2.32,-38.7,22.9
2013-02-09 01:54:00,0.0,1.9605,0.0011,409.14,0.28,-1.0,0.0,138.23,23.69,24.60,36.28,0.04,-272.75,-272.75,-46,559,-932,17.1,0.5,-45.9,17.2,0.5,-45.4,5.73,2.43,-38.7,22.9
2013-02-09 01:55:00,0.0,1.9605,0.0008,409.11,0.29,-1.0,0.0,138.23,23.68,24.60,36.28,0.04,-272.75,-272.74,-46,559,-932,17.1,0.5,-46.3,17.3,0.5,-45.5,5.73,2.47,-38.7,22.9
2013-02-09 01:56:00,0.0,1.9611,0.0010,409.17,0.32,-1.0,0.0,138.23,23.68,24.60,36.28,0.04,-272.75,-272.75,-46,559,-932,17.2,0.5,-46.3,17.2,0.5,-45.5,5.73,2.31,-38.7,22.9
2013-02-09 01:57:00,0.0,1.9607,0.0011,409.14,0.31,-1.0,0.0,138.23,23.67,24.60,36.28,0.04,-272.75,-272.75,-46,559,-932,17.2,0.5,-46.4,17.2,0.5,-45.4,5.73,2.47,-38.7,22.9
2013-02-09 01:58:00,0.0,1.9608,0.0009,409.29,0.27,-1.0,0.0,138.23,23.67,24.60,36.27,0.04,-272.74,-272.74,-46,559,-932,17.1,0.5,-46.5,17.2,0.5,-45.5,5.73,2.43,-38.7,22.9
2013-02-09 01:59:00,0.0,1.9609,0.0009,409.20,0.26,-1.0,0.0,138.23,23.67,24.60,36.27,0.04,-272.74,-272.74,-46,559,-932,17.1,0.5,-46.4,17.3,0.5,-45.4,5.73,2.31,-38.7,22.9
2013-02-09 02:00:00,0.0,1.9607,0.0010,409.08,0.24,-1.0,0.0,138.23,23.66,24.60,36.29,0.04,-272.74,-272.75,-46,559,-932,17.1,0.5,-46.4,17.2,0.5,-45.5,5.73,2.50,-38.7,22.9
2013-02-09 02:01:00,0.0,1.9606,0.0010,409.19,0.26,-1.0,0.0,138.23,23.66,24.60,36.28,0.04,-272.74,-272.75,-46,559,-932,17.1,0.5,-46.3,17.2,0.5,-45.5,5.73,2.40,-38.8,22.9
2013-02-09 02:02:00,0.0,1.9612,0.0009,409.19,0.28,-1.0,0.0,138.23,23.66,24.60,36.28,0.04,-272.74,-272.74,-46,559,-932,17.1,0.5,-46.5,17.2,0.5,-45.4,5.73,2.34,-38.7,22.9
2013-02-09 02:03:00,0.0,1.9608,0.0010,409.21,0.27,-1.0,0.0,138.23,23.66,24.60,36.27,0.04,-272.75,-272.75,-46,559,-932,17.1,0.5,-46.4,17.2,0.5,-45.6,5.73,2.51,-38.7,22.9
2013-02-09 02:04:00,0.0,1.9606,0.0010,409.19,0.24,-1.0,0.0,138.23,23.66,24.60,36.27,0.04,-272.75,-272.75,-46,559,-932,17.1,0.5,-46.4,17.2,0.5,-45.5,5.73,2.36,-38.7,22.9
2013-02-09 02:05:00,0.0,1.9607,0.0009,409.14,0.25,-1.0,0.0,138.23,23.66,24.60,36.28,0.04,-272.74,-272.75,-46,559,-932,17.1,0.5,-46.5,17.2,0.5,-45.4,5.73,2.36,-38.7,22.8
2013-02-09 02:06:00,0.0,1.9602,0.0008,409.20,0.30,-1.0,0.0,138.23,23.65,24.60,36.28,0.04,-272.74,-272.75,-46,559,-932,17.1,0.5,-46.3,17.2,0.5,-45.5,5.73,2.51,-38.7,22.9
2013-02-09 02:07:00,0.0,1.9598,0.0008,409.17,0.25,-1.0,0.0,138.23,23.64,24.60,36.28,0.04,-272.75,-272.75,-46,559,-932,17.1,0.5,-46.5,17.2,0.5,-45.5,5.73,2.32,-38.7,22.9
2013-02-09 02:08:00,0.0,1.9598,0.0010,409.22,0.29,-1.0,0.0,138.23,23.63,24.60,36.28,0.04,-272.74,-272.75,-46,559,-932,17.1,0.5,-46.2,17.2,0.5,-45.4,5.73,2.42,-38.7,22.8
2013-02-09 02:09:00,0.0,1.9600,0.0010,409.20,0.28,-1.0,0.0,138.23,23.62,24.60,36.28,0.04,-272.74,-272.74,-46,559,-932,17.1,0.5,-45.9,17.2,0.5,-45.5,5.73,2.48,-38.7,22.8
2013-02-09 02:10:00,0.0,1.9595,0.0009,409.08,0.24,-1.0,0.0,138.23,23.62,24.60,36.29,0.04,-272.75,-272.74,-46,559,-932,17.1,0.5,-45.9,17.2,0.5,-45.4,5.73,2.30,-38.7,22.8
2013-02-09 02:11:00,0.0,1.9599,0.0008,409.19,0.31,-1.0,0.0,138.23,23.61,24.60,36.28,0.04,-272.75,-272.75,-46,559,-932,17.1,0.5,-46.0,17.2,0.5,-45.1,5.73,2.47,-38.7,22.8
2013-02-09 02:12:00,0.0,1.9596,0.0010,409.15,0.26,-1.0,0.0,138.23,23.61,24.60,36.28,0.04,-272.74,-272.74,-46,559,-932,17.1,0.5,-45.9,17.2,0.5,-45.1,5.73,2.44,-38.7,22.8
2013-02-09 02:13:00,0.0,1.9596,0.0009,409.12,0.30,-1.0,0.0,138.23,23.60,24.60,36.28,0.04,-272.74,-272.74,-46,559,-932,17.1,0.5,-46.0,17.2,0.5,-45.1,5.73,2.31,-38.7,22.8
2013-02-09 02:14:00,0.0,1.9596,0.0008,409.18,0.29,-1.0,0.0,138.23,23.60,24.60,36.27,0.04,-272.75,-272.75,-46,559,-932,17.1,0.5,-45.9,17.2,0.5,-45.1,5.73,2.50,-38.7,22.8
2013-02-09 02:15:00,0.0,1.9595,0.0008,409.17,0.29,-1.0,0.0,138.23,23.59,24.60,36.28,0.04,-272.74,-272.74,-46,559,-932,17.1,0.5,-45.9,17.2,0.5,-45.0,5.73,2.39,-38.8,22.8
2013-02-09 02:16:00,0.0,1.9599,0.0008,409.16,0.28,-1.0,0.0,138.23,23.58,24.60,36.28,0.04,-272.75,-272.75,-46,559,-932,17.1,0.5,-45.9,17.2,0.5,-45.1,5.73,2.35,-38.7,22.8
2013-02-09 02:17:00,0.0,1.9604,0.0011,409.16,0.27,-1.0,0.0,138.23,23.59,24.60,36.29,0.04,-272.75,-272.75,-46,558,-932,17.1,0.5,-45.8,17.2,0.6,-45.0,5.73,2.51,-38.7,22.8
2013-02-09 02:18:00,0.0,1.9602,0.0010,409.15,0.27,-1.0,0.0,138.23,23.59,24.60,36.28,0.04,-272.74,-272.75,-46,559,-932,17.1,0.5,-46.0,17.2,0.6,-45.0,5.73,2.34,-38.7,22.8